MysteryTwister C3
NUMBER OF ACTIVE MEMBERS:

8084
Follow us: Facebook Twitter
 



Level I Challenges (75)

Page 1 of the challenges in Level I, ordered by date posted (the most recent appear first).

Classical Ciphers^3

[wacker-01] - 138 users already solved this challenge, 13 are working on it.
 
 
 

This challenge contains three messages encrypted with classical ciphers. You will need break each of the ciphers and take note of the three codewords. When you have all three codewords, submit them in the form "codeword1-codeword2-codeword3". Please note that the codewords are case sensitive and you have only 5 trials to find the correct solution.

The MTC3 team wishes everybody much success and fun in finding the correct solution.
Read more...

Click here to get to the corresponding forum topic to share your opinion.
Click here to download the challenge.

Author: This email address is being protected from spambots. You need JavaScript enabled to view it.
Published on: 2010-10-14 13:30
Maximum number of attempts for this challenge: 15

All successful users of this challenge

Rank User (#138) Achieved points (Global score) y-m-d - h:m:s

Nobody (nobody) 200 (40618) 2010-10-14 13:35:59
Dennis Nolte (JokerX) 200 (6377) 2010-10-14 17:00:31
Simon Jakob (simon.jakob) 200 (18714) 2010-10-15 01:32:19
No you (lolwhat) 133 (2124) 2010-10-16 19:17:36
#5 Nabb (Nabb) 133 (13803) 2010-10-16 19:18:04
#6 Michael Winter (Isaenforcer) 125 (250) 2010-10-18 02:46:24
#7 Robin Parker (thehe) 125 (350) 2010-10-18 04:14:37
#8 Ralf Stephan (rwst) 120 (22735) 2010-10-18 16:54:42
#9 Michael Fischer (MichaelF) 120 (973) 2010-10-19 01:08:24
#10 J Br (j.br) 117 (3242) 2010-10-19 13:55:59
#11 Sebastian Steinmann (teodoc) 117 (5594) 2010-10-19 21:30:14
#12 Anibal Kürekci (ak187) 114 (967) 2010-10-20 14:40:41
#13 Carsten Lenz (kAyCeE80) 111 (460) 2010-10-22 13:43:40
#14 Grinse Katze (Grinsekatze) 111 (964) 2010-10-22 13:53:39
#15 Roadrunner (rr) 109 (12702) 2010-10-24 14:43:14
#16 Juan (kation) 108 (6113) 2010-10-26 07:36:21
#17 Armin Krauss (argh) 107 (153843) 2010-10-28 11:04:25
#18 Carsten Baum (crashti) 104 (1135) 2010-11-06 13:14:12
#19 Bernd Freise (Xanhem) 103 (1154) 2010-11-19 17:38:18
#20 Nils Achim Lacke (Babbage) 103 (618) 2010-11-20 15:51:51
#21 Roland Röder (roro) 101 (307) 2010-12-23 12:40:21
#22 David (aki321) 101 (27482) 2011-01-23 20:13:25
#23 Hans Rudolf (mutabor) 101 (3015) 2011-02-08 18:56:24
#24 Jay Bee (jaybee) 101 (1926) 2011-02-11 21:41:20
#25 Thomas Gonda (TomG) 101 (33741) 2011-03-10 20:46:54
#26 Arnold Sendler (Tschighor) 101 (1105) 2011-04-06 12:00:39
#27 Mike (mambrosio) 101 (303) 2011-04-07 18:53:30
#28 j.h. (haegarq) 101 (11696) 2011-04-28 12:28:13
#29 Egon Hamburger (Seehase) 101 (3445) 2011-04-28 14:09:48
#30 Wombat (Wombat) 101 (5822) 2011-04-30 11:40:00
#31 Marcin Zawadzki (harry007) 101 (3012) 2011-05-02 12:12:49
#32 Muendo (muendo) 100 (3501) 2011-05-09 06:24:20
#33 Daniel Fretwell (fretty) 100 (30107) 2011-06-27 11:50:55
#34 Seth Kintigh (DarkFibre) 100 (79471) 2011-07-15 17:47:06
#35 Hank (hanky) 100 (22859) 2011-07-27 14:48:44
#36 Stefan Haas (stef_the_chef) 100 (4329) 2011-07-27 19:47:59
#37 Dano (Dano) 100 (14610) 2011-07-29 23:42:59
#38 dbuq (dbuq) 100 (22762) 2011-09-05 17:21:38
#39 Viktor (Veselovský) 100 (113116) 2011-09-13 03:08:42
#40 J. M. (jomandi) 100 (113270) 2011-09-20 23:35:55
#41 Jay Kay (Merty) 100 (3726) 2011-09-28 16:49:05
#42 Thomas Mattel (Tom) 100 (2462) 2011-10-25 19:55:07
#43 Bart den Hartog (Bart13) 100 (116412) 2011-11-08 05:44:38
#44 Michal Musilek (mim3) 100 (1121) 2011-11-13 14:27:52
#45 Nathan (Witten) 100 (25326) 2011-12-09 22:58:27
#46 Mayuresh Anand (effort2break) 100 (8728) 2012-01-07 12:28:42
#47 Tom Tox (tox) 100 (11752) 2012-01-18 14:45:00
#48 John (johnstosh) 100 (4448) 2012-02-11 20:20:33
#49 John (Tiger) 100 (1505) 2012-02-17 21:44:43
#50 Hans Peter (hanspeter) 100 (48115) 2012-03-08 22:32:27
#51 Michael Gürtler (michaelg) 100 (4128) 2012-03-18 19:52:54
#52 Kurt Gebauer (Yokozuna) 100 (120839) 2012-03-19 01:46:12
#53 H. Lautenschlager (helmi) 100 (18162) 2012-04-24 20:17:09
#54 Dusan (xxdradus) 100 (40134) 2012-04-26 11:29:48
#55 George (Theofanidis) 100 (88988) 2012-05-22 11:42:51
#56 Thomas Lambert (lambert) 100 (38594) 2012-08-02 17:54:23
#57 E.T (Ertheb) 100 (54872) 2012-08-04 14:26:28
#58 Em Doulgerakis (Greko) 100 (109970) 2012-08-08 21:15:42
#59 Harry (Schwabenbambi) 100 (2409) 2012-09-14 11:40:26
#60 Benny (Kingombo) 100 (3663) 2012-09-30 23:28:55
#61 Martina (Nikita) 100 (3863) 2012-09-30 23:29:43
#62 ghjklty70 (ghjklty70) 100 (217) 2012-10-28 19:27:48
#63 KW (qwer*) 100 (13753) 2012-10-31 20:48:58
#64 George Ho (GeorgH) 100 (3095) 2012-11-24 07:13:38
#65 Julia Werdelmann (jw) 100 (10407) 2012-12-19 14:49:59
#66 Jan (Yazoh) 100 (1000) 2012-12-31 00:13:38
#67 Iain Sharp (WoodenHedgehog) 100 (2196) 2013-01-31 14:20:00
#68 kevin shaw (steggily) 100 (2298) 2013-01-31 14:23:36
#69 vanderguile (vanderguile) 100 (2916) 2013-03-15 06:19:30
#70 Hans Joachim Girulat (joregi) 100 (28462) 2013-04-03 10:36:46
#71 Ramon Rojas (superme) 100 (3409) 2013-04-28 21:31:19
#72 Jörg Schwarzwälder (secuso) 100 (1509) 2013-05-08 21:33:12
#73 n a (jarofyarr) 100 (1901) 2013-05-24 01:31:12
#74 Steve (Samacian) 100 (23704) 2013-06-24 05:30:02
#75 Luigi Tomelli (archstanton) 100 (95549) 2013-06-29 09:43:14
#76 Bernhard Gruber (bgr) 100 (22631) 2013-07-15 15:25:30
#77 Almut (problelmo) 100 (45992) 2013-07-16 23:59:20
#78 Philipp Hammer-Pohlau (phase2) 100 (17981) 2013-07-29 12:54:20
#79 zahir mohsen moradi (ariobarzan) 100 (99757) 2013-09-01 16:40:46
#80 Sebastian Kluge (zappo) 100 (1801) 2013-09-05 15:06:28
#81 Alexander (cruachan) 100 (16051) 2013-09-28 02:47:20
#82 Gergely Simon (george314) 100 (16555) 2013-10-01 23:09:22
#83 Claudi (bucaneros) 100 (701) 2013-10-06 21:21:17
#84 Paul (Octavius) 100 (100) 2013-12-03 18:11:38
#85 Brad (braddrew) 100 (15878) 2013-12-05 09:50:41
#86 Jim Gillogly (Scryer) 100 (21260) 2013-12-07 18:06:14
#87 george lasry (george4096) 100 (213462) 2013-12-12 15:51:43
#88 Alain (Integral) 100 (198642) 2013-12-18 12:13:29
#89 Pavel (haw) 100 (22728) 2014-01-07 21:48:14
#90 Kim H. S. (tenchijin) 100 (21386) 2014-01-20 17:23:32
#91 Bertold (bk) 100 (8972) 2014-01-28 20:57:25
#92 Marcel (bene1512) 100 (20896) 2014-01-31 17:28:36
#93 Michael Möller (michaelm) 100 (117401) 2014-02-05 16:38:08
#94 Snake (snk) 100 (51689) 2014-03-13 17:25:24
#95 Karl Schutt (günter) 100 (34469) 2014-03-29 11:44:48
#96 Siggi Kraus (Kruxi) 100 (701) 2014-05-07 22:00:07
#97 Franzi (Pilzkönigin) 100 (100) 2014-05-08 11:55:54
#98 Tina (BTina) 100 (1500) 2014-06-01 02:26:11
#99 cesar (chapelo) 100 (300) 2014-06-11 22:30:30
#100 Julia Bernotat (El Greco ) 100 (81129) 2014-07-14 21:54:44
#101 Nariman (Linkf00fkY) 100 (100) 2014-07-24 21:50:41
#102 Robert (rm) 100 (56012) 2014-07-31 22:27:37
#103 Andreas Frerichs (Ossili) 100 (33026) 2014-08-31 14:05:23
#104 Peter Lustig (arsen) 100 (2838) 2014-09-02 12:56:08
#105 swe (swe) 100 (200) 2014-09-21 19:03:53
#106 Francisco Moraes (fmoraes) 100 (90044) 2014-11-03 21:54:09
#107 Tim Fink (Magellan) 100 (4126) 2014-12-06 11:06:51
#108 Kai Ludwig (TalentRaspel) 100 (15704) 2015-01-06 18:38:46
#109 Roland Schindler (dr.roland) 100 (403) 2015-01-13 01:11:37
#110 HolgerK (HolgerK) 100 (23648) 2015-01-22 22:32:46
#111 Rainer Zufall (kiekuk) 100 (42198) 2015-03-18 23:00:51
#112 Brian Kieslich (briank) 100 (6733) 2015-04-14 12:21:16
#113 Michael Ammon (Ammonym) 100 (7719) 2015-06-08 02:33:15
#114 Mark van Heeswijk (markvh) 100 (2600) 2015-07-11 14:37:30
#115 Tradecraft (Tradecraft) 100 (5540) 2015-07-17 15:53:45
#116 Erik (Erox) 100 (20365) 2015-08-02 18:41:29
#117 Sirius (Leznar) 100 (4552) 2015-09-22 18:08:22
#118 Alain Collignon (vexilla72) 100 (51007) 2015-10-12 09:07:56
#119 Joerg G. (SnifferMaster) 100 (17225) 2015-10-12 17:22:32
#120 A. Ranea (ranea) 100 (100) 2015-10-29 12:16:23
#121 A Romero (A. Romero) 100 (100) 2015-11-02 14:13:14
#122 Szabó Zoltán (szabo.z87) 100 (47990) 2015-11-18 11:09:27
#123 S (Zyphe) 100 (8324) 2015-11-25 20:52:39
#124 Peter (TomBombadil) 100 (3417) 2016-03-15 16:12:57
#125 Lennart (Penthesilea) 100 (4110) 2016-04-16 23:16:35
#126 Peter (Garnet) 100 (14033) 2016-05-03 20:45:49
#127 Norbert Biermann (Norbert) 100 (40024) 2016-07-28 08:55:49
#128 Chris Kolonko (ckolonko) 100 (900) 2016-08-21 22:28:21
#129 Dominik M. (Sgt. Pepper) 100 (43997) 2016-10-13 21:21:37
#130 Michael (FoM) 100 (13778) 2016-11-27 11:35:30
#131 Meine Registrierung (TryC3) 100 (6045) 2016-12-30 12:21:28
#132 Nofre Tete (noffi) 100 (10522) 2016-12-31 16:38:27
#133 Mir Dim (mir0soft) 100 (48879) 2017-03-14 13:11:17
#134 chris (c2) 100 (51973) 2017-03-29 23:45:45
#135 Daniel Walder (ibex) 100 (14372) 2017-04-16 23:10:18
#136 Danny Higgins (hamster147) 100 (14185) 2017-04-24 09:02:21
#137 sarah b (silva) 100 (3202) 2017-06-09 16:14:21
#138 D3d4lu5 (D3d4lu5) 100 (18420) 2017-06-13 13:21:27
You must be logged in to solve the challenge
Pages [1] 1 Show All  
 
 
powered by the CrypTool project  CrypTool

 

   +++    [14:09 - 23.06.2017] D3d4lu5 solved the Level II challenge 'Brute-Force-Attack on Triple-DES with Reduced Key Space'    +++    [07:55 - 23.06.2017] TheLion solved the Level I challenge 'Number Sequence — Part 2'    +++    [07:43 - 23.06.2017] TheLion solved the Level I challenge 'Original Caesar Cipher'    +++    [06:34 - 23.06.2017] TheLion solved the Level I challenge 'Number Sequence'    +++    [23:03 - 22.06.2017] george4096 solved the Level II challenge 'CMEA 1'    +++